Time,TemperatureF,DewpointF,PressureIn,WindDirection,WindDirectionDegrees,WindSpeedMPH,WindSpeedGustMPH,Humidity,HourlyPrecipIn,Conditions,Clouds,dailyrainin,SoftwareType,DateUTC
2013-05-04 00:05:00,59.7,49.0,30.09,SSE,149,4.0,13.0,68,0.00,,,0.02,weatherlink.com 1.10,2013-05-04 04:05:00,
2013-05-04 00:20:00,59.3,48.0,30.09,ESE,116,10.0,15.0,66,0.00,,,0.02,weatherlink.com 1.10,2013-05-04 04:20:00,
2013-05-04 00:35:00,58.9,48.0,30.09,ESE,114,4.0,13.0,67,0.00,,,0.02,weatherlink.com 1.10,2013-05-04 04:35:00,
2013-05-04 00:50:00,58.4,47.0,30.09,ESE,120,3.0,14.0,67,0.00,,,0.02,weatherlink.com 1.10,2013-05-04 04:50:00,
2013-05-04 01:05:00,58.0,47.0,30.09,ENE,72,1.0,8.0,67,0.00,,,0.02,weatherlink.com 1.10,2013-05-04 05:05:00,
2013-05-04 01:20:00,57.6,47.0,30.09,SSE,150,7.0,14.0,67,0.00,,,0.00,weatherlink.com 1.10,2013-05-04 05:20:00,
2013-05-04 01:35:00,57.1,47.0,30.09,ESE,108,7.0,12.0,68,0.00,,,0.00,weatherlink.com 1.10,2013-05-04 05:35:00,
2013-05-04 01:50:00,56.7,46.0,30.08,SE,132,2.0,8.0,67,0.00,,,0.00,weatherlink.com 1.10,2013-05-04 05:50:00,
2013-05-04 02:05:00,56.2,46.0,30.08,ESE,112,2.0,11.0,68,0.00,,,0.00,weatherlink.com 1.10,2013-05-04 06:05:00,
2013-05-04 02:20:00,55.6,46.0,30.08,SSE,154,4.0,11.0,69,0.00,,,0.00,weatherlink.com 1.10,2013-05-04 06:20:00,
2013-05-04 02:35:00,55.1,45.0,30.08,SE,124,8.0,10.0,70,0.00,,,0.00,weatherlink.com 1.10,2013-05-04 06:35:00,
2013-05-04 02:50:00,54.5,45.0,30.08,SE,141,5.0,16.0,71,0.00,,,0.00,weatherlink.com 1.10,2013-05-04 06:50:00,
2013-05-04 03:05:00,54.0,45.0,30.08,SE,127,5.0,9.0,71,0.00,,,0.00,weatherlink.com 1.10,2013-05-04 07:05:00,
2013-05-04 03:20:00,53.6,45.0,30.08,SW,216,3.0,8.0,73,0.00,,,0.00,weatherlink.com 1.10,2013-05-04 07:20:00,
2013-05-04 03:35:00,52.9,44.0,30.09,SE,140,10.0,15.0,72,0.00,,,0.00,weatherlink.com 1.10,2013-05-04 07:35:00,
2013-05-04 03:50:00,52.5,44.0,30.09,ESE,110,9.0,16.0,74,0.00,,,0.00,weatherlink.com 1.10,2013-05-04 07:50:00,
2013-05-04 04:05:00,52.1,44.0,30.09,SE,143,2.0,9.0,73,0.00,,,0.00,weatherlink.com 1.10,2013-05-04 08:05:00,
2013-05-04 04:20:00,51.6,44.0,30.09,East,81,5.0,10.0,74,0.00,,,0.00,weatherlink.com 1.10,2013-05-04 08:20:00,
2013-05-04 04:35:00,51.3,44.0,30.09,SE,130,0.0,3.0,75,0.00,,,0.00,weatherlink.com 1.10,2013-05-04 08:35:00,
2013-05-04 04:50:00,51.2,44.0,30.09,NNE,33,1.0,2.0,76,0.00,,,0.00,weatherlink.com 1.10,2013-05-04 08:50:00,
2013-05-04 05:05:00,50.8,44.0,30.09,ENE,64,0.0,6.0,76,0.00,,,0.00,weatherlink.com 1.10,2013-05-04 09:05:00,
2013-05-04 05:20:00,50.5,43.0,30.09,NNE,12,2.0,7.0,76,0.00,,,0.00,weatherlink.com 1.10,2013-05-04 09:20:00,
2013-05-04 05:35:00,50.3,43.0,30.09,NNE,30,3.0,10.0,77,0.00,,,0.00,weatherlink.com 1.10,2013-05-04 09:35:00,
2013-05-04 05:51:00,50.0,43.0,30.09,North,359,2.0,12.0,77,0.00,,,0.00,weatherlink.com 1.10,2013-05-04 09:51:00,
2013-05-04 06:06:00,49.8,43.0,30.08,NE,47,1.0,12.0,78,0.00,,,0.00,weatherlink.com 1.10,2013-05-04 10:06:00,
2013-05-04 06:21:00,49.6,43.0,30.08,ENE,77,2.0,13.0,78,0.00,,,0.00,weatherlink.com 1.10,2013-05-04 10:21:00,
2013-05-04 06:36:00,49.3,43.0,30.09,NNE,29,3.0,10.0,78,0.00,,,0.00,weatherlink.com 1.10,2013-05-04 10:36:00,
2013-05-04 06:51:00,49.2,43.0,30.09,East,97,1.0,8.0,79,0.00,,,0.00,weatherlink.com 1.10,2013-05-04 10:51:00,
2013-05-04 07:06:00,49.2,43.0,30.09,NNE,24,0.0,9.0,79,0.00,,,0.00,weatherlink.com 1.10,2013-05-04 11:06:00,
2013-05-04 07:21:00,49.1,43.0,30.09,ENE,66,2.0,9.0,80,0.00,,,0.00,weatherlink.com 1.10,2013-05-04 11:21:00,
2013-05-04 07:36:00,49.2,43.0,30.10,NW,312,0.0,6.0,80,0.00,,,0.00,weatherlink.com 1.10,2013-05-04 11:36:00,
2013-05-04 07:51:00,49.2,43.0,30.10,ESE,106,1.0,7.0,80,0.00,,,0.00,weatherlink.com 1.10,2013-05-04 11:51:00,
2013-05-04 08:06:00,49.3,44.0,30.10,ENE,59,4.0,7.0,81,0.00,,,0.00,weatherlink.com 1.10,2013-05-04 12:06:00,
2013-05-04 08:36:00,49.5,44.0,30.10,NE,50,2.0,9.0,82,0.00,,,0.00,weatherlink.com 1.10,2013-05-04 12:36:00,
2013-05-04 08:51:00,49.6,44.0,30.10,NNE,29,2.0,5.0,82,0.00,,,0.00,weatherlink.com 1.10,2013-05-04 12:51:00,
2013-05-04 09:06:00,49.8,45.0,30.10,East,88,1.0,7.0,82,0.00,,,0.00,weatherlink.com 1.10,2013-05-04 13:06:00,
2013-05-04 09:21:00,50.1,45.0,30.09,NNW,346,1.0,9.0,82,0.00,,,0.00,weatherlink.com 1.10,2013-05-04 13:21:00,
2013-05-04 09:36:00,50.3,45.0,30.09,North,359,4.0,7.0,82,0.00,,,0.00,weatherlink.com 1.10,2013-05-04 13:36:00,
2013-05-04 09:51:00,50.5,45.0,30.09,NNE,31,4.0,8.0,81,0.00,,,0.00,weatherlink.com 1.10,2013-05-04 13:51:00,
2013-05-04 10:06:00,51.0,45.0,30.09,ENE,72,1.0,8.0,81,0.00,,,0.00,weatherlink.com 1.10,2013-05-04 14:06:00,
2013-05-04 10:21:00,51.5,46.0,30.09,SSW,198,2.0,6.0,81,0.00,,,0.00,weatherlink.com 1.10,2013-05-04 14:21:00,
2013-05-04 10:36:00,51.7,46.0,30.09,ENE,68,1.0,5.0,80,0.00,,,0.00,weatherlink.com 1.10,2013-05-04 14:36:00,
2013-05-04 10:51:00,51.7,46.0,30.09,North,9,2.0,12.0,80,0.00,,,0.00,weatherlink.com 1.10,2013-05-04 14:51:00,
2013-05-04 11:06:00,51.5,46.0,30.09,East,88,3.0,10.0,81,0.00,,,0.00,weatherlink.com 1.10,2013-05-04 15:06:00,
2013-05-04 11:21:00,51.4,46.0,30.09,ESE,104,0.0,8.0,81,0.00,,,0.00,weatherlink.com 1.10,2013-05-04 15:21:00,
2013-05-04 11:36:00,51.4,46.0,30.09,NNW,336,2.0,6.0,82,0.00,,,0.00,weatherlink.com 1.10,2013-05-04 15:36:00,
2013-05-04 11:51:00,51.5,46.0,30.09,NNW,337,4.0,6.0,82,0.00,,,0.00,weatherlink.com 1.10,2013-05-04 15:51:00,
2013-05-04 12:06:00,51.6,46.0,30.08,NW,312,2.0,9.0,82,0.00,,,0.00,weatherlink.com 1.10,2013-05-04 16:06:00,
2013-05-04 12:21:00,51.9,47.0,30.08,WNW,292,3.0,8.0,82,0.00,,,0.00,weatherlink.com 1.10,2013-05-04 16:21:00,
2013-05-04 12:36:00,52.2,47.0,30.07,ESE,105,2.0,9.0,82,0.00,,,0.00,weatherlink.com 1.10,2013-05-04 16:36:00,
2013-05-04 12:51:00,52.6,47.0,30.07,NE,56,3.0,6.0,82,0.00,,,0.00,weatherlink.com 1.10,2013-05-04 16:51:00,
2013-05-04 13:06:00,53.0,48.0,30.06,ENE,64,2.0,11.0,82,0.00,,,0.00,weatherlink.com 1.10,2013-05-04 17:06:00,
2013-05-04 13:21:00,53.1,48.0,30.06,NW,322,4.0,8.0,82,0.00,,,0.00,weatherlink.com 1.10,2013-05-04 17:21:00,
2013-05-04 13:36:00,53.4,48.0,30.06,ENE,58,2.0,6.0,82,0.00,,,0.00,weatherlink.com 1.10,2013-05-04 17:36:00,
2013-05-04 13:51:00,53.3,48.0,30.06,SW,235,0.0,5.0,82,0.00,,,0.00,weatherlink.com 1.10,2013-05-04 17:51:00,
2013-05-04 14:06:00,53.2,48.0,30.06,South,177,0.0,5.0,83,0.00,,,0.00,weatherlink.com 1.10,2013-05-04 18:06:00,
2013-05-04 14:21:00,53.4,48.0,30.05,NNE,14,3.0,7.0,82,0.00,,,0.00,weatherlink.com 1.10,2013-05-04 18:21:00,
2013-05-04 14:36:00,54.1,49.0,30.05,NE,40,4.0,6.0,82,0.00,,,0.00,weatherlink.com 1.10,2013-05-04 18:36:00,
2013-05-04 14:51:00,54.7,49.0,30.04,NW,321,3.0,8.0,80,0.00,,,0.00,weatherlink.com 1.10,2013-05-04 18:51:00,
2013-05-04 15:06:00,54.4,49.0,30.04,NE,47,2.0,10.0,81,0.00,,,0.00,weatherlink.com 1.10,2013-05-04 19:06:00,
2013-05-04 15:21:00,54.8,49.0,30.03,NE,35,0.0,4.0,81,0.00,,,0.00,weatherlink.com 1.10,2013-05-04 19:21:00,
2013-05-04 15:36:00,55.0,49.0,30.02,NNE,27,3.0,5.0,81,0.00,,,0.00,weatherlink.com 1.10,2013-05-04 19:36:00,
2013-05-04 15:51:00,55.7,50.0,30.02,NW,319,1.0,3.0,80,0.00,,,0.00,weatherlink.com 1.10,2013-05-04 19:51:00,
2013-05-04 16:06:00,56.1,49.0,30.01,NE,47,0.0,4.0,78,0.00,,,0.00,weatherlink.com 1.10,2013-05-04 20:06:00,
2013-05-04 16:21:00,56.3,50.0,30.00,NNE,29,2.0,4.0,78,0.00,,,0.00,weatherlink.com 1.10,2013-05-04 20:21:00,
2013-05-04 16:36:00,56.2,49.0,30.00,NE,39,2.0,7.0,78,0.00,,,0.00,weatherlink.com 1.10,2013-05-04 20:36:00,
2013-05-04 16:51:00,56.4,50.0,30.00,NE,41,0.0,3.0,78,0.00,,,0.00,weatherlink.com 1.10,2013-05-04 20:51:00,
2013-05-04 17:06:00,56.8,50.0,30.00,NNE,23,0.0,3.0,78,0.00,,,0.00,weatherlink.com 1.10,2013-05-04 21:06:00,
2013-05-04 17:21:00,56.8,50.0,30.00,NNE,23,0.0,2.0,78,0.00,,,0.00,weatherlink.com 1.10,2013-05-04 21:21:00,
2013-05-04 17:36:00,57.0,51.0,30.00,NNE,23,0.0,1.0,79,0.00,,,0.00,weatherlink.com 1.10,2013-05-04 21:36:00,
2013-05-04 17:51:00,57.0,51.0,30.00,East,83,0.0,2.0,80,0.00,,,0.00,weatherlink.com 1.10,2013-05-04 21:51:00,
2013-05-04 18:06:00,56.8,50.0,30.00,SE,146,3.0,9.0,78,0.00,,,0.00,weatherlink.com 1.10,2013-05-04 22:06:00,
2013-05-04 18:21:00,56.8,50.0,30.00,SSE,152,5.0,10.0,77,0.00,,,0.00,weatherlink.com 1.10,2013-05-04 22:21:00,
2013-05-04 18:36:00,56.6,49.0,29.99,ESE,114,1.0,11.0,77,0.00,,,0.00,weatherlink.com 1.10,2013-05-04 22:36:00,
2013-05-04 18:51:00,56.5,49.0,29.98,NNW,330,0.0,5.0,77,0.00,,,0.00,weatherlink.com 1.10,2013-05-04 22:51:00,
2013-05-04 19:06:00,56.4,50.0,29.98,NE,45,1.0,4.0,78,0.00,,,0.00,weatherlink.com 1.10,2013-05-04 23:06:00,
2013-05-04 19:21:00,56.3,51.0,29.98,ENE,75,1.0,3.0,81,0.00,,,0.00,weatherlink.com 1.10,2013-05-04 23:21:00,
2013-05-04 19:36:00,56.0,50.0,29.99,East,92,0.0,1.0,81,0.00,,,0.00,weatherlink.com 1.10,2013-05-04 23:36:00,
2013-05-04 19:51:00,55.5,50.0,29.99,NE,43,2.0,4.0,82,0.00,,,0.00,weatherlink.com 1.10,2013-05-04 23:51:00,
2013-05-04 20:06:00,55.2,51.0,29.98,East,90,0.0,1.0,84,0.00,,,0.00,weatherlink.com 1.10,2013-05-05 00:06:00,
2013-05-04 20:21:00,54.9,51.0,29.98,SSW,197,0.0,1.0,85,0.00,,,0.00,weatherlink.com 1.10,2013-05-05 00:21:00,
2013-05-04 20:36:00,54.8,51.0,29.98,SSW,205,1.0,2.0,86,0.00,,,0.00,weatherlink.com 1.10,2013-05-05 00:36:00,
2013-05-04 20:51:00,54.7,50.0,29.99,NW,316,0.0,3.0,85,0.00,,,0.00,weatherlink.com 1.10,2013-05-05 00:51:00,
2013-05-04 21:06:00,54.9,50.0,29.99,NE,48,0.0,12.0,83,0.00,,,0.00,weatherlink.com 1.10,2013-05-05 01:06:00,
2013-05-04 21:21:00,55.3,50.0,30.00,NNE,21,2.0,8.0,82,0.00,,,0.00,weatherlink.com 1.10,2013-05-05 01:21:00,
2013-05-04 21:36:00,55.4,50.0,30.00,NW,320,0.0,6.0,83,0.00,,,0.00,weatherlink.com 1.10,2013-05-05 01:36:00,
2013-05-04 21:52:00,55.2,50.0,30.01,ESE,105,1.0,7.0,82,0.00,,,0.00,weatherlink.com 1.10,2013-05-05 01:52:00,
2013-05-04 22:07:00,55.1,50.0,30.03,ENE,63,2.0,5.0,83,0.00,,,0.00,weatherlink.com 1.10,2013-05-05 02:07:00,
2013-05-04 22:22:00,54.8,50.0,30.04,East,80,0.0,5.0,83,0.00,,,0.00,weatherlink.com 1.10,2013-05-05 02:22:00,
2013-05-04 22:37:00,53.9,50.0,30.04,NE,35,0.0,9.0,87,0.00,,,0.00,weatherlink.com 1.10,2013-05-05 02:37:00,
2013-05-04 22:52:00,52.5,50.0,30.04,North,359,3.0,6.0,91,0.00,,,0.00,weatherlink.com 1.10,2013-05-05 02:52:00,
2013-05-04 23:07:00,51.8,50.0,30.04,ENE,59,0.0,4.0,93,0.00,,,0.00,weatherlink.com 1.10,2013-05-05 03:07:00,
2013-05-04 23:22:00,51.3,50.0,30.04,NE,51,0.0,7.0,94,0.00,,,0.00,weatherlink.com 1.10,2013-05-05 03:22:00,
2013-05-04 23:37:00,51.0,50.0,30.04,East,89,2.0,5.0,95,0.00,,,0.00,weatherlink.com 1.10,2013-05-05 03:37:00,
2013-05-04 23:52:00,50.9,50.0,30.04,East,89,2.0,4.0,96,0.00,,,0.00,weatherlink.com 1.10,2013-05-05 03:52:00,